SITE: BDASn,YEAR: 2011,,,,,,
2011date,time,pzhd (cm),gw temp (C),DWT (cm),WT elev (m),,
01/01/11,0:00,253.4,12.8,112.9,1372.392,,Depth to water table:
01/01/11,0:30,252.9,12.9,113.4,1372.387,,DWT = SCL - CH - h (all values in cm)
01/01/11,1:00,252.5,12.8,113.8,1372.383,,where
01/01/11,1:30,252.4,12.8,113.9,1372.382,,SCL = sensor cable length = 493.3 cm
01/01/11,2:00,252.7,12.8,113.6,1372.385,,CH = casing height of well = 127.0 cm
01/01/11,2:30,252.2,12.8,114.1,1372.380,,h = height of water above sensor (from pzhd column)
01/01/11,3:00,252.1,12.8,114.2,1372.379,,
01/01/11,3:30,252.0,12.8,114.3,1372.378,,WT elevation:
01/01/11,4:00,252.7,12.8,113.6,1372.385,,Sensor elev = 1369.858 m asl
01/01/11,4:30,251.3,12.8,115.0,1372.371,,WT elev = sensor elev + h (from pzhd column)
01/01/11,5:00,252.4,12.8,113.9,1372.382,,
01/01/11,5:30,250.3,12.9,116.0,1372.361,,
01/01/11,6:00,250.0,12.8,116.3,1372.358,,Dates with missing data (# 0.5 hr data points):
01/01/11,6:30,250.7,12.8,115.6,1372.365,,3/16 (2).
01/01/11,7:00,250.3,12.8,116.0,1372.361,,
01/01/11,7:30,250.3,12.8,116.0,1372.361,,
01/01/11,8:00,250.5,12.8,115.8,1372.363,,Dates w/missing T data:
01/01/11,8:30,251.2,12.8,115.1,1372.370,,"Jan 7, Feb 19, Mar 1, 12, 16, Apr 25, 30,"
01/01/11,9:00,252.4,12.9,113.9,1372.382,,"Jun 6, 27, Jul 6, 9, 11, Nov 4, 8, Dec 24."
01/01/11,9:30,251.7,12.8,114.6,1372.375,,
01/01/11,10:00,252.2,12.8,114.1,1372.380,,
01/01/11,10:30,252.3,12.8,114.0,1372.381,,
01/01/11,11:00,252.7,12.8,113.6,1372.385,,
01/01/11,11:30,253.0,12.8,113.3,1372.388,,
01/01/11,12:00,253.8,12.8,112.5,1372.396,,
01/01/11,12:30,254.4,12.8,111.9,1372.402,,
01/01/11,13:00,254.4,12.8,111.9,1372.402,,
01/01/11,13:30,254.0,12.8,112.3,1372.398,,
01/01/11,14:00,254.8,12.8,111.5,1372.406,,
01/01/11,14:30,254.5,12.8,111.8,1372.403,,
01/01/11,15:00,254.8,12.8,111.5,1372.406,,
01/01/11,15:30,254.4,12.8,111.9,1372.402,,
01/01/11,16:00,254.5,12.8,111.8,1372.403,,
01/01/11,16:30,254.6,12.8,111.7,1372.404,,
01/01/11,17:00,254.5,12.8,111.8,1372.403,,
01/01/11,17:30,254.4,12.8,111.9,1372.402,,
01/01/11,18:00,253.6,12.8,112.7,1372.394,,
01/01/11,18:30,253.7,12.8,112.6,1372.395,,
01/01/11,19:00,253.7,12.8,112.6,1372.395,,
01/01/11,19:30,253.1,12.8,113.2,1372.389,,
01/01/11,20:00,252.9,12.8,113.4,1372.387,,
01/01/11,20:30,252.6,12.8,113.7,1372.384,,
01/01/11,21:00,252.8,12.8,113.5,1372.386,,
01/01/11,21:30,252.8,12.8,113.5,1372.386,,
01/01/11,22:00,252.9,12.8,113.4,1372.387,,
01/01/11,22:30,253.4,12.8,112.9,1372.392,,
01/01/11,23:00,253.2,12.8,113.1,1372.390,,
01/01/11,23:30,253.6,12.8,112.7,1372.394,,
01/02/11,0:00,253.7,12.8,112.6,1372.395,,
01/02/11,0:30,253.4,12.8,112.9,1372.392,,
01/02/11,1:00,254.0,12.8,112.3,1372.398,,
01/02/11,1:30,253.7,12.8,112.6,1372.395,,
01/02/11,2:00,253.6,12.8,112.7,1372.394,,
01/02/11,2:30,253.7,12.8,112.6,1372.395,,
01/02/11,3:00,253.6,12.8,112.7,1372.394,,
01/02/11,3:30,254.4,12.8,111.9,1372.402,,
01/02/11,4:00,254.3,12.8,112.0,1372.401,,
01/02/11,4:30,254.1,12.8,112.2,1372.399,,
01/02/11,5:00,254.6,12.8,111.7,1372.404,,
01/02/11,5:30,254.3,12.8,112.0,1372.401,,
01/02/11,6:00,253.8,12.8,112.5,1372.396,,
01/02/11,6:30,253.8,12.8,112.5,1372.396,,
01/02/11,7:00,254.2,12.8,112.1,1372.400,,
01/02/11,7:30,254.2,12.8,112.1,1372.400,,
01/02/11,8:00,254.5,12.8,111.8,1372.403,,
01/02/11,8:30,254.2,12.8,112.1,1372.400,,
01/02/11,9:00,254.2,12.8,112.1,1372.400,,
01/02/11,9:30,254.1,12.8,112.2,1372.399,,
01/02/11,10:00,253.9,12.8,112.4,1372.397,,
01/02/11,10:30,253.7,12.8,112.6,1372.395,,
01/02/11,11:00,253.2,12.8,113.1,1372.390,,
01/02/11,11:30,254.0,12.8,112.3,1372.398,,
01/02/11,12:00,254.6,12.8,111.7,1372.404,,
01/02/11,12:30,254.5,12.8,111.8,1372.403,,
01/02/11,13:00,255.5,12.8,110.8,1372.413,,
01/02/11,13:30,254.7,12.8,111.6,1372.405,,
01/02/11,14:00,254.6,12.8,111.7,1372.404,,
01/02/11,14:30,255.1,12.8,111.2,1372.409,,
01/02/11,15:00,254.7,12.8,111.6,1372.405,,
01/02/11,15:30,254.9,12.8,111.4,1372.407,,
01/02/11,16:00,254.8,12.8,111.5,1372.406,,
01/02/11,16:30,255.0,12.8,111.3,1372.408,,
01/02/11,17:00,254.8,12.8,111.5,1372.406,,
01/02/11,17:30,255.1,12.8,111.2,1372.409,,
01/02/11,18:00,254.0,12.8,112.3,1372.398,,
01/02/11,18:30,253.8,12.8,112.5,1372.396,,
01/02/11,19:00,253.9,12.8,112.4,1372.397,,
01/02/11,19:30,253.8,12.8,112.5,1372.396,,
01/02/11,20:00,254.1,12.8,112.2,1372.399,,
01/02/11,20:30,254.2,12.8,112.1,1372.400,,
01/02/11,21:00,254.0,12.8,112.3,1372.398,,
01/02/11,21:30,254.2,12.8,112.1,1372.400,,
01/02/11,22:00,254.1,12.8,112.2,1372.399,,
01/02/11,22:30,253.8,12.8,112.5,1372.396,,
01/02/11,23:00,254.1,12.8,112.2,1372.399,,
01/02/11,23:30,253.9,12.8,112.4,1372.397,,
01/03/11,0:00,254.2,12.8,112.1,1372.400,,
01/03/11,0:30,253.5,12.8,112.8,1372.393,,
01/03/11,1:00,253.6,12.8,112.7,1372.394,,
01/03/11,1:30,253.8,12.8,112.5,1372.396,,
01/03/11,2:00,253.4,12.8,112.9,1372.392,,
01/03/11,2:30,253.5,12.8,112.8,1372.393,,
01/03/11,3:00,253.8,12.8,112.5,1372.396,,
01/03/11,3:30,254.0,12.8,112.3,1372.398,,
01/03/11,4:00,253.6,12.8,112.7,1372.394,,
01/03/11,4:30,253.9,12.8,112.4,1372.397,,
01/03/11,5:00,254.3,12.8,112.0,1372.401,,
01/03/11,5:30,253.7,12.8,112.6,1372.395,,
01/03/11,6:00,253.7,12.8,112.6,1372.395,,
01/03/11,6:30,254.2,12.8,112.1,1372.400,,
01/03/11,7:00,253.6,12.8,112.7,1372.394,,
01/03/11,7:30,253.7,12.8,112.6,1372.395,,
01/03/11,8:00,253.5,12.8,112.8,1372.393,,
01/03/11,8:30,253.8,12.8,112.5,1372.396,,
01/03/11,9:00,253.1,12.8,113.2,1372.389,,
01/03/11,9:30,253.3,12.8,113.0,1372.391,,
01/03/11,10:00,253.4,12.8,112.9,1372.392,,
01/03/11,10:30,253.3,12.8,113.0,1372.391,,
01/03/11,11:00,254.1,12.8,112.2,1372.399,,
01/03/11,11:30,253.9,12.8,112.4,1372.397,,
01/03/11,12:00,253.9,12.8,112.4,1372.397,,
01/03/11,12:30,253.9,12.8,112.4,1372.397,,
01/03/11,13:00,254.5,12.8,111.8,1372.403,,
01/03/11,13:30,254.2,12.8,112.1,1372.400,,
01/03/11,14:00,254.2,12.8,112.1,1372.400,,
01/03/11,14:30,254.5,12.8,111.8,1372.403,,
01/03/11,15:00,254.3,12.8,112.0,1372.401,,
01/03/11,15:30,254.9,12.8,111.4,1372.407,,
01/03/11,16:00,254.8,12.8,111.5,1372.406,,
01/03/11,16:30,254.3,12.8,112.0,1372.401,,
01/03/11,17:00,254.6,12.8,111.7,1372.404,,
01/03/11,17:30,254.3,12.8,112.0,1372.401,,
01/03/11,18:00,254.0,12.8,112.3,1372.398,,
01/03/11,18:30,253.7,12.8,112.6,1372.395,,
01/03/11,19:00,253.8,12.8,112.5,1372.396,,
01/03/11,19:30,253.6,12.8,112.7,1372.394,,
01/03/11,20:00,253.1,12.8,113.2,1372.389,,
01/03/11,20:30,253.2,12.8,113.1,1372.390,,
01/03/11,21:00,253.6,12.8,112.7,1372.394,,
01/03/11,21:30,253.5,12.8,112.8,1372.393,,
01/03/11,22:00,253.4,12.8,112.9,1372.392,,
01/03/11,22:30,253.3,12.8,113.0,1372.391,,
01/03/11,23:00,253.4,12.8,112.9,1372.392,,
01/03/11,23:30,252.7,12.8,113.6,1372.385,,
01/04/11,0:00,253.2,12.8,113.1,1372.390,,
01/04/11,0:30,253.6,12.7,112.7,1372.394,,
01/04/11,1:00,253.7,12.8,112.6,1372.395,,
01/04/11,1:30,253.0,12.7,113.3,1372.388,,
01/04/11,2:00,253.4,12.8,112.9,1372.392,,
01/04/11,2:30,253.9,12.8,112.4,1372.397,,
01/04/11,3:00,253.4,12.8,112.9,1372.392,,
01/04/11,3:30,253.5,12.8,112.8,1372.393,,
01/04/11,4:00,252.9,12.7,113.4,1372.387,,
01/04/11,4:30,253.0,12.7,113.3,1372.388,,
01/04/11,5:00,252.8,12.8,113.5,1372.386,,
01/04/11,5:30,253.0,12.7,113.3,1372.388,,
01/04/11,6:00,253.3,12.8,113.0,1372.391,,
01/04/11,6:30,253.3,12.8,113.0,1372.391,,
01/04/11,7:00,253.2,12.8,113.1,1372.390,,
01/04/11,7:30,253.6,12.8,112.7,1372.394,,
01/04/11,8:00,253.8,12.8,112.5,1372.396,,
01/04/11,8:30,253.3,12.7,113.0,1372.391,,
01/04/11,9:00,253.3,12.8,113.0,1372.391,,
01/04/11,9:30,252.2,12.8,114.1,1372.380,,
01/04/11,10:00,252.8,12.8,113.5,1372.386,,
01/04/11,10:30,252.7,12.8,113.6,1372.385,,
01/04/11,11:00,253.1,12.8,113.2,1372.389,,
01/04/11,11:30,253.4,12.7,112.9,1372.392,,
01/04/11,12:00,252.9,12.8,113.4,1372.387,,
01/04/11,12:30,253.6,12.8,112.7,1372.394,,
01/04/11,13:00,253.5,12.7,112.8,1372.393,,
01/04/11,13:30,253.6,12.7,112.7,1372.394,,
01/04/11,14:00,254.1,12.7,112.2,1372.399,,
01/04/11,14:30,254.1,12.8,112.2,1372.399,,
01/04/11,15:00,254.0,12.7,112.3,1372.398,,
01/04/11,15:30,253.4,12.8,112.9,1372.392,,
01/04/11,16:00,253.8,12.7,112.5,1372.396,,
01/04/11,16:30,253.0,12.7,113.3,1372.388,,
01/04/11,17:00,253.6,12.7,112.7,1372.394,,
01/04/11,17:30,253.4,12.7,112.9,1372.392,,
01/04/11,18:00,253.1,12.7,113.2,1372.389,,
01/04/11,18:30,253.3,12.7,113.0,1372.391,,
01/04/11,19:00,252.7,12.7,113.6,1372.385,,
01/04/11,19:30,252.8,12.7,113.5,1372.386,,
01/04/11,20:00,252.5,12.7,113.8,1372.383,,
01/04/11,20:30,252.6,12.7,113.7,1372.384,,
01/04/11,21:00,253.1,12.7,113.2,1372.389,,
01/04/11,21:30,252.2,12.7,114.1,1372.380,,
01/04/11,22:00,252.1,12.8,114.2,1372.379,,
01/04/11,22:30,252.0,12.7,114.3,1372.378,,
01/04/11,23:00,252.4,12.7,113.9,1372.382,,
01/04/11,23:30,252.2,12.7,114.1,1372.380,,
01/05/11,0:00,252.3,12.7,114.0,1372.381,,
01/05/11,0:30,252.4,12.7,113.9,1372.382,,
01/05/11,1:00,252.5,12.7,113.8,1372.383,,
01/05/11,1:30,253.0,12.7,113.3,1372.388,,
01/05/11,2:00,252.8,12.7,113.5,1372.386,,
01/05/11,2:30,252.6,12.7,113.7,1372.384,,
01/05/11,3:00,252.7,12.8,113.6,1372.385,,
01/05/11,3:30,252.5,12.7,113.8,1372.383,,
01/05/11,4:00,253.1,12.7,113.2,1372.389,,
01/05/11,4:30,252.6,12.7,113.7,1372.384,,
01/05/11,5:00,252.8,12.7,113.5,1372.386,,
01/05/11,5:30,252.4,12.7,113.9,1372.382,,
01/05/11,6:00,252.8,12.7,113.5,1372.386,,
01/05/11,6:30,252.5,12.7,113.8,1372.383,,
01/05/11,7:00,252.8,12.7,113.5,1372.386,,
01/05/11,7:30,252.1,12.7,114.2,1372.379,,
01/05/11,8:00,252.3,12.7,114.0,1372.381,,
01/05/11,8:30,252.1,12.7,114.2,1372.379,,
01/05/11,9:00,252.3,12.7,114.0,1372.381,,
01/05/11,9:30,251.4,12.7,114.9,1372.372,,
01/05/11,10:00,251.2,12.7,115.1,1372.370,,
01/05/11,10:30,252.1,12.7,114.2,1372.379,,
01/05/11,11:00,252.4,12.7,113.9,1372.382,,
01/05/11,11:30,252.5,12.7,113.8,1372.383,,
01/05/11,12:00,253.1,12.7,113.2,1372.389,,
01/05/11,12:30,253.6,12.7,112.7,1372.394,,
01/05/11,13:00,253.7,12.7,112.6,1372.395,,
01/05/11,13:30,253.5,12.7,112.8,1372.393,,
01/05/11,14:00,254.0,12.7,112.3,1372.398,,
01/05/11,14:30,253.6,12.7,112.7,1372.394,,
01/05/11,15:00,253.6,12.7,112.7,1372.394,,
01/05/11,15:30,253.6,12.7,112.7,1372.394,,
01/05/11,16:00,253.5,12.7,112.8,1372.393,,
01/05/11,16:30,254.0,12.7,112.3,1372.398,,
01/05/11,17:00,254.1,12.7,112.2,1372.399,,
01/05/11,17:30,253.9,12.7,112.4,1372.397,,
01/05/11,18:00,253.3,12.7,113.0,1372.391,,
01/05/11,18:30,253.1,12.7,113.2,1372.389,,
01/05/11,19:00,252.9,12.7,113.4,1372.387,,
01/05/11,19:30,253.0,12.7,113.3,1372.388,,
01/05/11,20:00,253.2,12.7,113.1,1372.390,,
01/05/11,20:30,253.3,12.7,113.0,1372.391,,
01/05/11,21:00,252.9,12.7,113.4,1372.387,,
01/05/11,21:30,253.3,12.7,113.0,1372.391,,
01/05/11,22:00,253.3,12.7,113.0,1372.391,,
01/05/11,22:30,254.0,12.7,112.3,1372.398,,
01/05/11,23:00,253.6,12.7,112.7,1372.394,,
01/05/11,23:30,253.8,12.7,112.5,1372.396,,
01/06/11,0:00,253.5,12.7,112.8,1372.393,,
01/06/11,0:30,253.0,12.7,113.3,1372.388,,
01/06/11,1:00,252.9,12.7,113.4,1372.387,,
01/06/11,1:30,253.0,12.7,113.3,1372.388,,
01/06/11,2:00,253.2,12.7,113.1,1372.390,,
01/06/11,2:30,253.0,12.7,113.3,1372.388,,
01/06/11,3:00,253.7,12.7,112.6,1372.395,,
01/06/11,3:30,253.2,12.7,113.1,1372.390,,
01/06/11,4:00,253.6,12.7,112.7,1372.394,,
01/06/11,4:30,253.7,12.7,112.6,1372.395,,
01/06/11,5:00,253.9,12.7,112.4,1372.397,,
01/06/11,5:30,253.8,12.7,112.5,1372.396,,
01/06/11,6:00,254.2,12.7,112.1,1372.400,,
01/06/11,6:30,253.6,12.7,112.7,1372.394,,
01/06/11,7:00,253.7,12.7,112.6,1372.395,,
01/06/11,7:30,253.9,12.7,112.4,1372.397,,
01/06/11,8:00,253.9,12.7,112.4,1372.397,,
01/06/11,8:30,253.5,12.7,112.8,1372.393,,
01/06/11,9:00,253.3,12.7,113.0,1372.391,,
01/06/11,9:30,253.2,12.7,113.1,1372.390,,
01/06/11,10:00,253.3,12.7,113.0,1372.391,,
01/06/11,10:30,253.2,12.7,113.1,1372.390,,
01/06/11,11:00,253.0,12.7,113.3,1372.388,,
01/06/11,11:30,253.0,12.7,113.3,1372.388,,
01/06/11,12:00,253.4,12.7,112.9,1372.392,,
01/06/11,12:30,253.8,12.7,112.5,1372.396,,
01/06/11,13:00,254.0,12.7,112.3,1372.398,,
01/06/11,13:30,253.4,12.7,112.9,1372.392,,
01/06/11,14:00,253.8,12.7,112.5,1372.396,,
01/06/11,14:30,253.4,12.7,112.9,1372.392,,
01/06/11,15:00,254.1,12.7,112.2,1372.399,,
01/06/11,15:30,253.0,12.7,113.3,1372.388,,
01/06/11,16:00,253.9,12.7,112.4,1372.397,,
01/06/11,16:30,253.3,12.7,113.0,1372.391,,
01/06/11,17:00,254.1,12.7,112.2,1372.399,,
01/06/11,17:30,253.5,12.7,112.8,1372.393,,
01/06/11,18:00,253.8,12.7,112.5,1372.396,,
01/06/11,18:30,253.3,12.7,113.0,1372.391,,
01/06/11,19:00,253.2,12.7,113.1,1372.390,,
01/06/11,19:30,252.9,12.7,113.4,1372.387,,
01/06/11,20:00,253.2,12.7,113.1,1372.390,,
01/06/11,20:30,253.4,12.7,112.9,1372.392,,
01/06/11,21:00,253.2,12.7,113.1,1372.390,,
01/06/11,21:30,253.6,12.7,112.7,1372.394,,
01/06/11,22:00,253.7,12.7,112.6,1372.395,,
01/06/11,22:30,253.7,12.7,112.6,1372.395,,
01/06/11,23:00,253.5,12.7,112.8,1372.393,,
01/06/11,23:30,253.4,12.7,112.9,1372.392,,
01/07/11,0:00,253.8,12.7,112.5,1372.396,,
01/07/11,0:30,253.8,12.7,112.5,1372.396,,
01/07/11,1:00,253.6,12.7,112.7,1372.394,,
01/07/11,1:30,254.0,12.7,112.3,1372.398,,
01/07/11,2:00,253.9,12.7,112.4,1372.397,,
01/07/11,2:30,253.6,12.7,112.7,1372.394,,
01/07/11,3:00,253.7,12.7,112.6,1372.395,,
01/07/11,3:30,253.4,12.7,112.9,1372.392,,
01/07/11,4:00,253.2,12.7,113.1,1372.390,,
01/07/11,4:30,253.0,12.7,113.3,1372.388,,
01/07/11,5:00,253.5,12.7,112.8,1372.393,,
01/07/11,5:30,253.5,12.7,112.8,1372.393,,
01/07/11,6:00,253.5,12.7,112.8,1372.393,,
01/07/11,6:30,253.7,12.6,112.6,1372.395,,
01/07/11,7:00,253.9,12.7,112.4,1372.397,,
01/07/11,7:30,253.9,12.7,112.4,1372.397,,
01/07/11,8:00,254.0,12.7,112.3,1372.398,,
01/07/11,8:30,253.3,12.7,113.0,1372.391,,
01/07/11,9:00,253.5,12.7,112.8,1372.393,,
01/07/11,9:30,253.2,12.7,113.1,1372.390,,
01/07/11,10:00,253.1,12.7,113.2,1372.389,,
01/07/11,10:30,252.8,12.7,113.5,1372.386,,
01/07/11,11:00,253.0,12.7,113.3,1372.388,,
01/07/11,11:30,253.3,12.6,113.0,1372.391,,
01/07/11,12:00,253.6,12.6,112.7,1372.394,,
01/07/11,12:30,253.5,12.7,112.8,1372.393,,
01/07/11,13:00,253.2,12.7,113.1,1372.390,,
01/07/11,13:30,253.5,12.6,112.8,1372.393,,
01/07/11,14:00,253.8,12.6,112.5,1372.396,,
01/07/11,14:30,253.5,12.7,112.8,1372.393,,
01/07/11,15:00,253.4,12.6,112.9,1372.392,,
01/07/11,15:30,253.2,12.6,113.1,1372.390,,
01/07/11,16:00,253.8,12.6,112.5,1372.396,,
01/07/11,16:30,253.8,,112.5,1372.396,,
01/07/11,17:00,253.7,12.7,112.6,1372.395,,
01/07/11,17:30,253.6,12.7,112.7,1372.394,,
01/07/11,18:00,253.5,12.6,112.8,1372.393,,
01/07/11,18:30,253.4,12.7,112.9,1372.392,,
01/07/11,19:00,252.1,12.6,114.2,1372.379,,
01/07/11,19:30,252.4,12.7,113.9,1372.382,,
01/07/11,20:00,253.2,12.6,113.1,1372.390,,
01/07/11,20:30,252.9,12.7,113.4,1372.387,,
01/07/11,21:00,252.6,12.7,113.7,1372.384,,
01/07/11,21:30,252.6,12.7,113.7,1372.384,,
01/07/11,22:00,252.3,12.6,114.0,1372.381,,
01/07/11,22:30,252.8,12.7,113.5,1372.386,,
01/07/11,23:00,252.5,12.7,113.8,1372.383,,
01/07/11,23:30,253.1,12.7,113.2,1372.389,,
01/08/11,0:00,252.0,12.6,114.3,1372.378,,
01/08/11,0:30,252.7,12.6,113.6,1372.385,,
01/08/11,1:00,252.9,12.6,113.4,1372.387,,
01/08/11,1:30,253.0,12.6,113.3,1372.388,,
01/08/11,2:00,253.6,12.7,112.7,1372.394,,
01/08/11,2:30,253.2,12.6,113.1,1372.390,,
01/08/11,3:00,253.3,12.6,113.0,1372.391,,
01/08/11,3:30,253.1,12.6,113.2,1372.389,,
01/08/11,4:00,253.0,12.6,113.3,1372.388,,
01/08/11,4:30,253.1,12.7,113.2,1372.389,,
01/08/11,5:00,252.9,12.6,113.4,1372.387,,
01/08/11,5:30,253.2,12.6,113.1,1372.390,,
01/08/11,6:00,253.9,12.6,112.4,1372.397,,
01/08/11,6:30,253.4,12.6,112.9,1372.392,,
01/08/11,7:00,253.7,12.6,112.6,1372.395,,
01/08/11,7:30,253.3,12.7,113.0,1372.391,,
01/08/11,8:00,253.0,12.6,113.3,1372.388,,
01/08/11,8:30,253.3,12.6,113.0,1372.391,,
01/08/11,9:00,253.5,12.6,112.8,1372.393,,
01/08/11,9:30,252.0,12.6,114.3,1372.378,,
01/08/11,10:00,252.6,12.6,113.7,1372.384,,
01/08/11,10:30,252.2,12.6,114.1,1372.380,,
01/08/11,11:00,252.6,12.6,113.7,1372.384,,
01/08/11,11:30,253.3,12.6,113.0,1372.391,,
01/08/11,12:00,252.9,12.6,113.4,1372.387,,
01/08/11,12:30,253.4,12.6,112.9,1372.392,,
01/08/11,13:00,253.5,12.6,112.8,1372.393,,
01/08/11,13:30,253.0,12.6,113.3,1372.388,,
01/08/11,14:00,253.5,12.6,112.8,1372.393,,
01/08/11,14:30,253.3,12.6,113.0,1372.391,,
01/08/11,15:00,253.2,12.6,113.1,1372.390,,
01/08/11,15:30,253.1,12.6,113.2,1372.389,,
01/08/11,16:00,252.7,12.6,113.6,1372.385,,
01/08/11,16:30,253.1,12.6,113.2,1372.389,,
01/08/11,17:00,253.0,12.6,113.3,1372.388,,
01/08/11,17:30,253.4,12.6,112.9,1372.392,,
01/08/11,18:00,252.4,12.6,113.9,1372.382,,
01/08/11,18:30,252.4,12.6,113.9,1372.382,,
01/08/11,19:00,252.2,12.6,114.1,1372.380,,
01/08/11,19:30,251.9,12.6,114.4,1372.377,,
01/08/11,20:00,252.3,12.6,114.0,1372.381,,
01/08/11,20:30,252.4,12.6,113.9,1372.382,,
01/08/11,21:00,252.4,12.6,113.9,1372.382,,
01/08/11,21:30,252.0,12.6,114.3,1372.378,,
01/08/11,22:00,251.5,12.6,114.8,1372.373,,
01/08/11,22:30,252.0,12.6,114.3,1372.378,,
01/08/11,23:00,252.0,12.6,114.3,1372.378,,
01/08/11,23:30,251.7,12.6,114.6,1372.375,,
01/09/11,0:00,251.9,12.6,114.4,1372.377,,
01/09/11,0:30,252.3,12.6,114.0,1372.381,,
01/09/11,1:00,252.1,12.6,114.2,1372.379,,
01/09/11,1:30,252.1,12.6,114.2,1372.379,,
01/09/11,2:00,251.9,12.6,114.4,1372.377,,
01/09/11,2:30,251.6,12.6,114.7,1372.374,,
01/09/11,3:00,251.3,12.6,115.0,1372.371,,
01/09/11,3:30,251.5,12.6,114.8,1372.373,,
01/09/11,4:00,251.8,12.6,114.5,1372.376,,
01/09/11,4:30,252.3,12.6,114.0,1372.381,,
01/09/11,5:00,251.5,12.6,114.8,1372.373,,
01/09/11,5:30,251.6,12.6,114.7,1372.374,,
01/09/11,6:00,251.6,12.6,114.7,1372.374,,
01/09/11,6:30,251.5,12.6,114.8,1372.373,,
01/09/11,7:00,251.9,12.6,114.4,1372.377,,
01/09/11,7:30,251.5,12.6,114.8,1372.373,,
01/09/11,8:00,251.7,12.6,114.6,1372.375,,
01/09/11,8:30,251.7,12.6,114.6,1372.375,,
01/09/11,9:00,251.5,12.6,114.8,1372.373,,
01/09/11,9:30,251.0,12.6,115.3,1372.368,,
01/09/11,10:00,250.7,12.6,115.6,1372.365,,
01/09/11,10:30,250.8,12.6,115.5,1372.366,,
01/09/11,11:00,251.4,12.6,114.9,1372.372,,
01/09/11,11:30,251.8,12.6,114.5,1372.376,,
01/09/11,12:00,251.6,12.6,114.7,1372.374,,
01/09/11,12:30,252.0,12.6,114.3,1372.378,,
01/09/11,13:00,251.8,12.6,114.5,1372.376,,
01/09/11,13:30,252.4,12.6,113.9,1372.382,,
01/09/11,14:00,251.9,12.6,114.4,1372.377,,
01/09/11,14:30,251.1,12.6,115.2,1372.369,,
01/09/11,15:00,251.5,12.6,114.8,1372.373,,
01/09/11,15:30,251.9,12.6,114.4,1372.377,,
01/09/11,16:00,251.7,12.6,114.6,1372.375,,
01/09/11,16:30,251.1,12.6,115.2,1372.369,,
01/09/11,17:00,252.1,12.6,114.2,1372.379,,
01/09/11,17:30,252.0,12.6,114.3,1372.378,,
01/09/11,18:00,251.3,12.6,115.0,1372.371,,
01/09/11,18:30,251.5,12.6,114.8,1372.373,,
01/09/11,19:00,251.2,12.6,115.1,1372.370,,
01/09/11,19:30,251.4,12.6,114.9,1372.372,,
01/09/11,20:00,251.1,12.6,115.2,1372.369,,
01/09/11,20:30,251.9,12.6,114.4,1372.377,,
01/09/11,21:00,251.7,12.6,114.6,1372.375,,
01/09/11,21:30,251.5,12.6,114.8,1372.373,,
01/09/11,22:00,251.0,12.6,115.3,1372.368,,
01/09/11,22:30,251.7,12.6,114.6,1372.375,,
01/09/11,23:00,251.3,12.6,115.0,1372.371,,
01/09/11,23:30,251.5,12.6,114.8,1372.373,,
01/10/11,0:00,252.1,12.6,114.2,1372.379,,
01/10/11,0:30,252.2,12.6,114.1,1372.380,,
01/10/11,1:00,252.2,12.6,114.1,1372.380,,
01/10/11,1:30,251.8,12.6,114.5,1372.376,,
01/10/11,2:00,251.5,12.6,114.8,1372.373,,
01/10/11,2:30,251.6,12.6,114.7,1372.374,,
01/10/11,3:00,251.8,12.6,114.5,1372.376,,
01/10/11,3:30,251.8,12.6,114.5,1372.376,,
01/10/11,4:00,251.1,12.6,115.2,1372.369,,
01/10/11,4:30,251.2,12.6,115.1,1372.370,,
01/10/11,5:00,251.7,12.6,114.6,1372.375,,
01/10/11,5:30,251.2,12.6,115.1,1372.370,,
01/10/11,6:00,251.3,12.6,115.0,1372.371,,
01/10/11,6:30,251.6,12.6,114.7,1372.374,,
01/10/11,7:00,251.6,12.6,114.7,1372.374,,
01/10/11,7:30,251.3,12.6,115.0,1372.371,,
01/10/11,8:00,251.3,12.6,115.0,1372.371,,
01/10/11,8:30,251.3,12.6,115.0,1372.371,,
01/10/11,9:00,251.0,12.6,115.3,1372.368,,
01/10/11,9:30,250.9,12.6,115.4,1372.367,,
01/10/11,10:00,250.3,12.6,116.0,1372.361,,
01/10/11,10:30,251.0,12.6,115.3,1372.368,,
01/10/11,11:00,251.2,12.6,115.1,1372.370,,
01/10/11,11:30,251.3,12.6,115.0,1372.371,,
01/10/11,12:00,251.5,12.6,114.8,1372.373,,
01/10/11,12:30,252.0,12.6,114.3,1372.378,,
01/10/11,13:00,251.6,12.6,114.7,1372.374,,
01/10/11,13:30,251.8,12.5,114.5,1372.376,,
01/10/11,14:00,251.7,12.6,114.6,1372.375,,
01/10/11,14:30,252.1,12.6,114.2,1372.379,,
01/10/11,15:00,251.7,12.6,114.6,1372.375,,
01/10/11,15:30,251.7,12.5,114.6,1372.375,,
01/10/11,16:00,251.5,12.5,114.8,1372.373,,
01/10/11,16:30,251.3,12.6,115.0,1372.371,,
01/10/11,17:00,251.0,12.6,115.3,1372.368,,
01/10/11,17:30,251.6,12.5,114.7,1372.374,,
01/10/11,18:00,251.4,12.6,114.9,1372.372,,
01/10/11,18:30,250.6,12.5,115.7,1372.364,,
01/10/11,19:00,250.0,12.6,116.3,1372.358,,
01/10/11,19:30,250.1,12.5,116.2,1372.359,,
01/10/11,20:00,250.1,12.5,116.2,1372.359,,
01/10/11,20:30,250.3,12.5,116.0,1372.361,,
01/10/11,21:00,249.7,12.6,116.6,1372.355,,
01/10/11,21:30,249.9,12.6,116.4,1372.357,,
01/10/11,22:00,250.6,12.6,115.7,1372.364,,
01/10/11,22:30,250.3,12.6,116.0,1372.361,,
01/10/11,23:00,250.4,12.6,115.9,1372.362,,
01/10/11,23:30,250.3,12.6,116.0,1372.361,,
01/11/11,0:00,250.2,12.6,116.1,1372.360,,
01/11/11,0:30,250.4,12.6,115.9,1372.362,,
01/11/11,1:00,250.6,12.6,115.7,1372.364,,
01/11/11,1:30,250.3,12.6,116.0,1372.361,,
01/11/11,2:00,250.3,12.6,116.0,1372.361,,
01/11/11,2:30,250.3,12.6,116.0,1372.361,,
01/11/11,3:00,250.3,12.5,116.0,1372.361,,
01/11/11,3:30,250.7,12.6,115.6,1372.365,,
01/11/11,4:00,251.2,12.5,115.1,1372.370,,
01/11/11,4:30,251.0,12.6,115.3,1372.368,,
01/11/11,5:00,250.7,12.6,115.6,1372.365,,
01/11/11,5:30,250.5,12.5,115.8,1372.363,,
01/11/11,6:00,250.7,12.5,115.6,1372.365,,
01/11/11,6:30,250.0,12.6,116.3,1372.358,,
01/11/11,7:00,250.3,12.5,116.0,1372.361,,
01/11/11,7:30,250.1,12.5,116.2,1372.359,,
01/11/11,8:00,250.6,12.5,115.7,1372.364,,
01/11/11,8:30,250.4,12.5,115.9,1372.362,,
01/11/11,9:00,250.8,12.6,115.5,1372.366,,
01/11/11,9:30,250.4,12.5,115.9,1372.362,,
01/11/11,10:00,250.1,12.5,116.2,1372.359,,
01/11/11,10:30,250.5,12.6,115.8,1372.363,,
01/11/11,11:00,250.7,12.5,115.6,1372.365,,
01/11/11,11:30,251.1,12.5,115.2,1372.369,,
01/11/11,12:00,250.6,12.5,115.7,1372.364,,
01/11/11,12:30,251.4,12.5,114.9,1372.372,,
01/11/11,13:00,251.6,12.5,114.7,1372.374,,
01/11/11,13:30,251.6,12.5,114.7,1372.374,,
01/11/11,14:00,251.7,12.5,114.6,1372.375,,
01/11/11,14:30,251.3,12.5,115.0,1372.371,,
01/11/11,15:00,252.0,12.5,114.3,1372.378,,
01/11/11,15:30,251.7,12.5,114.6,1372.375,,
01/11/11,16:00,251.4,12.5,114.9,1372.372,,
01/11/11,16:30,251.8,12.5,114.5,1372.376,,
01/11/11,17:00,252.0,12.5,114.3,1372.378,,
01/11/11,17:30,251.7,12.5,114.6,1372.375,,
01/11/11,18:00,251.7,12.5,114.6,1372.375,,
01/11/11,18:30,252.0,12.5,114.3,1372.378,,
01/11/11,19:00,251.5,12.5,114.8,1372.373,,
01/11/11,19:30,251.0,12.5,115.3,1372.368,,
01/11/11,20:00,251.2,12.5,115.1,1372.370,,
01/11/11,20:30,251.7,12.5,114.6,1372.375,,
01/11/11,21:00,251.6,12.5,114.7,1372.374,,
01/11/11,21:30,251.9,12.5,114.4,1372.377,,
01/11/11,22:00,251.7,12.5,114.6,1372.375,,
01/11/11,22:30,252.3,12.5,114.0,1372.381,,
01/11/11,23:00,252.4,12.5,113.9,1372.382,,
01/11/11,23:30,252.4,12.5,113.9,1372.382,,
01/12/11,0:00,252.3,12.5,114.0,1372.381,,
01/12/11,0:30,252.5,12.5,113.8,1372.383,,
01/12/11,1:00,252.6,12.5,113.7,1372.384,,
01/12/11,1:30,252.4,12.5,113.9,1372.382,,
01/12/11,2:00,252.8,12.5,113.5,1372.386,,
01/12/11,2:30,252.7,12.5,113.6,1372.385,,
01/12/11,3:00,251.8,12.5,114.5,1372.376,,
01/12/11,3:30,253.0,12.5,113.3,1372.388,,
01/12/11,4:00,252.2,12.5,114.1,1372.380,,
01/12/11,4:30,252.0,12.5,114.3,1372.378,,